| time (UTC) | temp F | wind direction | speed MPH | gust MPH | rain 1hr in | rain 24hr in | rain mn in | humidity % | barometer mb |
| 20260903073107 | 61 | 0 | 0.0 | 2.0 | 0.00 | 0.06 | 0.00 | 87 | 1016.3 |
| 20260903071605 | 61 | 0 | 1.0 | 4.0 | 0.00 | 0.06 | 0.00 | 87 | 1016.4 |
| 20260903070114 | 62 | 257 | 0.0 | 4.0 | 0.00 | 0.06 | 0.00 | 87 | 1016.6 |
| 20260903064559 | 61 | 0 | 0.0 | 4.0 | 0.00 | 0.06 | 0.06 | 87 | 1016.5 |
| 20260903063109 | 61 | 209 | 0.0 | 4.0 | 0.00 | 0.06 | 0.06 | 87 | 1016.7 |
| 20260903061615 | 61 | 198 | 0.0 | 2.0 | 0.00 | 0.06 | 0.06 | 87 | 1016.7 |
| 20260903060107 | 61 | 0 | 0.0 | 2.0 | 0.00 | 0.06 | 0.06 | 86 | 1016.7 |
| 20260903054604 | 62 | 174 | 1.0 | 3.0 | 0.00 | 0.06 | 0.06 | 87 | 1016.7 |
| 20260903053101 | 62 | 235 | 1.0 | 4.0 | 0.00 | 0.06 | 0.06 | 87 | 1017.0 |
| 20260903051601 | 61 | 225 | 1.0 | 3.0 | 0.00 | 0.06 | 0.06 | 87 | 1017.0 |
| 20260903050105 | 61 | 0 | 0.0 | 2.0 | 0.00 | 0.06 | 0.06 | 86 | 1017.1 |
| 20260903044602 | 61 | 0 | 0.0 | 2.0 | 0.00 | 0.06 | 0.06 | 86 | 1017.0 |
| 20260903043103 | 62 | 0 | 0.0 | 0.0 | 0.00 | 0.06 | 0.06 | 86 | 1017.0 |
| 20260903041613 | 62 | 0 | 0.0 | 0.0 | 0.00 | 0.06 | 0.06 | 85 | 1017.1 |
| 20260903034602 | 62 | 0 | 0.0 | 0.0 | 0.00 | 0.06 | 0.06 | 81 | 1016.8 |
| 20260903033102 | 63 | 0 | 0.0 | 0.0 | 0.00 | 0.06 | 0.06 | 81 | 1016.6 |
| 20260903031608 | 63 | 0 | 0.0 | 3.0 | 0.00 | 0.06 | 0.06 | 80 | 1016.4 |
| 20260903030100 | 64 | 0 | 0.0 | 6.0 | 0.00 | 0.06 | 0.06 | 79 | 1016.2 |
| 20260903024604 | 64 | 254 | 4.0 | 10.0 | 0.00 | 0.06 | 0.06 | 78 | 1016.2 |
| 20260903023106 | 65 | 244 | 5.0 | 10.0 | 0.00 | 0.06 | 0.06 | 77 | 1016.3 |
| 20260903021604 | 66 | 248 | 3.0 | 10.0 | 0.00 | 0.06 | 0.06 | 77 | 1016.3 |
| 20260903020100 | 66 | 258 | 7.0 | 13.0 | 0.00 | 0.06 | 0.06 | 76 | 1016.3 |
| 20260903014625 | 68 | 276 | 6.0 | 14.0 | 0.00 | 0.06 | 0.06 | 73 | 1016.3 |
| 20260903013106 | 69 | 248 | 5.0 | 11.0 | 0.00 | 0.06 | 0.06 | 71 | 1016.4 |
| 20260903011622 | 69 | 265 | 4.0 | 12.0 | 0.00 | 0.06 | 0.06 | 70 | 1016.4 |
| 20260903010114 | 70 | 248 | 5.0 | 11.0 | 0.00 | 0.06 | 0.06 | 69 | 1016.4 |
| 20260903004608 | 70 | 280 | 7.0 | 14.0 | 0.00 | 0.06 | 0.06 | 67 | 1016.3 |
| 20260903003127 | 71 | 227 | 6.0 | 12.0 | 0.00 | 0.06 | 0.06 | 65 | 1016.3 |
| 20260903001604 | 71 | 173 | 6.0 | 13.0 | 0.00 | 0.06 | 0.06 | 64 | 1016.3 |
| 20260902234611 | 72 | 242 | 6.0 | 13.0 | 0.00 | 0.06 | 0.06 | 62 | 1016.3 |
| 20260902233104 | 72 | 269 | 6.0 | 12.0 | 0.00 | 0.06 | 0.06 | 62 | 1016.4 |
| 20260902231606 | 72 | 214 | 6.0 | 13.0 | 0.00 | 0.06 | 0.06 | 63 | 1016.5 |
| 20260902230105 | 72 | 221 | 7.0 | 15.0 | 0.00 | 0.06 | 0.06 | 63 | 1016.7 |
| 20260902224627 | 73 | 260 | 6.0 | 12.0 | 0.00 | 0.06 | 0.06 | 61 | 1016.9 |
| 20260902223103 | 73 | 228 | 5.0 | 12.0 | 0.00 | 0.06 | 0.06 | 61 | 1016.8 |
| 20260902221602 | 73 | 273 | 6.0 | 11.0 | 0.00 | 0.06 | 0.06 | 62 | 1016.9 |
| 20260902220116 | 72 | 280 | 4.0 | 12.0 | 0.00 | 0.06 | 0.06 | 64 | 1017.0 |
| 20260902214601 | 71 | 237 | 4.0 | 11.0 | 0.00 | 0.06 | 0.06 | 62 | 1017.1 |
| 20260902213104 | 71 | 243 | 4.0 | 12.0 | 0.00 | 0.06 | 0.06 | 65 | 1017.1 |
| 20260902211605 | 71 | 231 | 5.0 | 12.0 | 0.00 | 0.06 | 0.06 | 64 | 1017.2 |
| 20260902210100 | 70 | 280 | 4.0 | 11.0 | 0.00 | 0.06 | 0.06 | 65 | 1017.4 |
| 20260902204608 | 70 | 322 | 6.0 | 11.0 | 0.00 | 0.06 | 0.06 | 65 | 1017.4 |
| 20260902203118 | 71 | 288 | 2.0 | 10.0 | 0.00 | 0.06 | 0.06 | 68 | 1017.5 |
| 20260902201604 | 70 | 178 | 4.0 | 9.0 | 0.00 | 0.06 | 0.06 | 69 | 1017.4 |
| 20260902200106 | 70 | 155 | 5.0 | 10.0 | 0.00 | 0.06 | 0.06 | 67 | 1017.5 |
| 20260902194605 | 69 | 305 | 5.0 | 12.0 | 0.00 | 0.06 | 0.06 | 68 | 1017.7 |
| 20260902193106 | 69 | 234 | 3.0 | 12.0 | 0.00 | 0.06 | 0.06 | 69 | 1017.7 |
| 20260902191605 | 69 | 264 | 5.0 | 12.0 | 0.00 | 0.06 | 0.06 | 71 | 1017.8 |
| 20260902190107 | 69 | 274 | 4.0 | 10.0 | 0.00 | 0.06 | 0.06 | 72 | 1017.9 |
| 20260902184658 | 67 | 315 | 5.0 | 13.0 | 0.00 | 0.06 | 0.06 | 78 | 1018.0 |
| 20260902183105 | 67 | 264 | 5.0 | 9.0 | 0.00 | 0.06 | 0.06 | 80 | 1018.0 |
| 20260902181605 | 67 | 263 | 4.0 | 10.0 | 0.00 | 0.06 | 0.06 | 80 | 1017.8 |
| 20260902180105 | 64 | 294 | 4.0 | 8.0 | 0.00 | 0.06 | 0.06 | 89 | 1017.7 |
| 20260902174605 | 63 | 274 | 2.0 | 6.0 | 0.00 | 0.06 | 0.06 | 92 | 1017.8 |
| 20260902173105 | 63 | 170 | 2.0 | 7.0 | 0.00 | 0.06 | 0.06 | 93 | 1017.5 |
| 20260902171606 | 63 | 188 | 1.0 | 6.0 | 0.00 | 0.06 | 0.06 | 93 | 1017.5 |
| 20260902170103 | 62 | 0 | 2.0 | 4.0 | 0.00 | 0.06 | 0.06 | 93 | 1017.3 |
| 20260902164607 | 62 | 195 | 1.0 | 6.0 | 0.00 | 0.06 | 0.06 | 93 | 1017.2 |
| 20260902163104 | 61 | 200 | 2.0 | 7.0 | 0.01 | 0.06 | 0.06 | 93 | 1017.0 |
| 20260902161605 | 61 | 0 | 3.0 | 6.0 | 0.01 | 0.06 | 0.06 | 93 | 1017.0 |
| 20260902160121 | 61 | 161 | 2.0 | 7.0 | 0.01 | 0.06 | 0.06 | 93 | 1017.1 |
| 20260902154606 | 61 | 183 | 2.0 | 6.0 | 0.01 | 0.06 | 0.06 | 93 | 1017.0 |
| 20260902153103 | 61 | 139 | 2.0 | 6.0 | 0.02 | 0.05 | 0.05 | 92 | 1017.0 |
| 20260902151614 | 61 | 156 | 2.0 | 7.0 | 0.03 | 0.05 | 0.05 | 92 | 1016.8 |
| 20260902150106 | 61 | 0 | 1.0 | 7.0 | 0.04 | 0.05 | 0.05 | 92 | 1016.8 |
| 20260902144604 | 61 | 137 | 2.0 | 5.0 | 0.05 | 0.05 | 0.05 | 92 | 1016.6 |
| 20260902143110 | 61 | 163 | 1.0 | 4.0 | 0.03 | 0.03 | 0.03 | 91 | 1016.6 |
| 20260902141600 | 61 | 173 | 1.0 | 5.0 | 0.02 | 0.02 | 0.02 | 91 | 1016.2 |
| 20260902140059 | 61 | 0 | 1.0 | 6.0 | 0.01 | 0.01 | 0.01 | 90 | 1016.1 |
| 20260902134612 | 62 | 219 | 1.0 | 9.0 | 0.00 | 0.00 | 0.00 | 89 | 1016.0 |
| 20260902133106 | 62 | 213 | 2.0 | 7.0 | 0.00 | 0.00 | 0.00 | 89 | 1016.1 |
| 20260902131607 | 61 | 179 | 2.0 | 8.0 | 0.00 | 0.00 | 0.00 | 89 | 1015.9 |
| 20260902130104 | 61 | 181 | 2.0 | 8.0 | 0.00 | 0.00 | 0.00 | 89 | 1015.8 |
| 20260902124603 | 61 | 156 | 2.0 | 7.0 | 0.00 | 0.00 | 0.00 | 89 | 1015.7 |
| 20260902123103 | 61 | 196 | 2.0 | 6.0 | 0.00 | 0.00 | 0.00 | 88 | 1015.7 |
| 20260902121603 | 61 | 188 | 2.0 | 6.0 | 0.00 | 0.00 | 0.00 | 88 | 1015.8 |
| 20260902120105 | 62 | 0 | 0.0 | 4.0 | 0.00 | 0.00 | 0.00 | 87 | 1015.9 |
| 20260902114607 | 61 | 127 | 0.0 | 3.0 | 0.00 | 0.00 | 0.00 | 88 | 1015.8 |
| 20260902113106 | 61 | 0 | 1.0 | 3.0 | 0.00 | 0.00 | 0.00 | 87 | 1015.9 |
| 20260902111601 | 61 | 119 | 1.0 | 4.0 | 0.00 | 0.00 | 0.00 | 87 | 1015.8 |
| 20260902110105 | 61 | 106 | 1.0 | 3.0 | 0.00 | 0.00 | 0.00 | 88 | 1015.8 |
| 20260902104622 | 61 | 128 | 1.0 | 4.0 | 0.00 | 0.00 | 0.00 | 87 | 1015.9 |
| 20260902103103 | 61 | 0 | 0.0 | 3.0 | 0.00 | 0.00 | 0.00 | 86 | 1016.1 |
| 20260902101605 | 62 | 149 | 2.0 | 4.0 | 0.00 | 0.00 | 0.00 | 84 | 1016.1 |
| 20260902100130 | 62 | 87 | 0.0 | 4.0 | 0.00 | 0.00 | 0.00 | 84 | 1016.2 |
| 20260902094607 | 62 | 115 | 1.0 | 3.0 | 0.00 | 0.00 | 0.00 | 85 | 1016.2 |
| 20260902093120 | 62 | 0 | 1.0 | 3.0 | 0.00 | 0.00 | 0.00 | 85 | 1016.3 |
| 20260902091619 | 62 | 140 | 1.0 | 4.0 | 0.00 | 0.00 | 0.00 | 85 | 1016.3 |
| 20260902090106 | 62 | 0 | 0.0 | 1.0 | 0.00 | 0.00 | 0.00 | 85 | 1016.5 |
| 20260902084608 | 62 | 0 | 0.0 | 3.0 | 0.00 | 0.00 | 0.00 | 85 | 1016.7 |
| 20260902083110 | 62 | 167 | 0.0 | 2.0 | 0.00 | 0.00 | 0.00 | 86 | 1016.7 |
| 20260902081612 | 62 | 0 | 0.0 | 1.0 | 0.00 | 0.00 | 0.00 | 86 | 1016.6 |
| 20260902080108 | 62 | 0 | 0.0 | 3.0 | 0.00 | 0.00 | 0.00 | 86 | 1016.7 |
| 20260902074605 | 62 | 0 | 0.0 | 3.0 | 0.00 | 0.00 | 0.00 | 87 | 1016.6 |